Weather in Ustinovo

Russia / Chelyabinsk Oblast     54°49′28″N   59°58′40″E
temp.,
°C
wind,
m/s
gust,
m/s
humid.,
%
clouds,
%
prec.,
mm/h
press.,
hPa
HPBL,
m
6 may, thu
thu623:00+7wnw814705 0.5 1005998
02:00+5wnw713695 0.0 1007959
05:00+4wnw612726 0.0 1010835
08:00+6wnw711625 0.0 10111152
11:00+10wnw8114545 0.0 10121676
14:00+12wnw8114261 0.0 10131929
17:00+12nw7114037 0.0 10151964
20:00+9nw59585 0.0 1016436
7 may, fri
fri723:00+6w22740 0.0 101910
02:00+5wsw22815 0.0 102011
05:00+4wsw11853 0.0 102210
08:00+8sw23695 0.0 1022269
11:00+13ssw44475 0.0 10221139
14:00+16ssw33345 0.0 10211460
17:00+17s33310 0.0 10191650
20:00+14s33465 0.0 101926
8 may, sat
sat823:00+10sw225176 0.0 102011
02:00+9ssw225396 0.0 102010
05:00+8ssw115599 0.0 101910
08:00+12w0150100 0.0 1019154
11:00+16sse2137100 0.0 10181279
14:00+18ese2229100 0.0 10172588
17:00+18ese342861 0.0 10162416
20:00+15n224291 0.0 101614
9 may, sun
sun923:00+11n2248100 0.0 101711
02:00+9nnw336194 0.0 101727
05:00+8nnw227043 0.0 101814
08:00+12n34569 0.0 1018273
11:00+17nne353541 0.0 10162032
14:00+18ene4533100 0.0 10162202
17:00+19ne563367 0.0 10162422
20:00+15ne345029 0.0 101749
10 may, mon
mon1023:00+11nnw226268 0.0 101918
02:00+10nnw226499 0.0 101930
05:00+9nnw22715 0.0 102021
08:00+13n24625 0.0 1021266
11:00+18ene33455 0.0 10211385
14:00+20e2237100 0.0 10212340
17:00+19ssw2245100 0.0 102199
20:00+16s2253100 0.0 102213